Location: Ladrillo (historical)
(32.8195°N, 117.2231°W)
Time: 13:53:03
(UTC+00:00)

Daily predictions for brighter satellites

Satellite Brightness Start Highest point End
(mag) Time Altitude Azimuth Time Altitude Azimuth Time Altitude Azimuth
ERS-2 3.7 12:04:46 10° SE 12:08:05 34° ENE 12:10:47 14° NNE
Nadezhda 4 Rocket 3.8 12:02:33 10° SSW 12:08:37 70° W 12:14:44 10° N
CZ-4B R/B 3.7 12:05:56 10° SE 12:08:50 25° ENE 12:11:42 10° NNE
Cosmos 44 Rocket 3.4 12:10:28 63° SW 12:10:28 63° SW 12:15:15 10° SSE
Cosmos 2082 Rocket 2.0 12:09:55 64° W 12:10:09 65° WNW 12:15:44 10° NNE
deb Chang Zheng 4 4.5 12:06:49 10° NNE 12:10:56 47° E 12:15:03 10° S
Meteor 1-24 Rocket 3.8 12:07:49 10° S 12:13:21 79° E 12:19:09 10° N
Cosmos 2369 4.1 12:08:19 11° NNW 12:13:39 63° ENE 12:19:13 10° SSE
Meteor 1-31 Rocket 4.1 12:09:57 10° NNE 12:13:41 40° E 12:17:22 10° S
GOES 2 Rocket 3.9 12:16:02 44° SW 12:17:22 55° S 12:23:51 10° E
DELTA 2 R/B (1) 3.7 12:19:26 49° WSW 12:20:16 54° SSW 12:25:44 10° SE
Cosmos 1892 Rocket 3.8 12:16:38 10° S 12:20:56 68° E 12:25:15 10° NNE
Gblst 52 Del rocket 4.1 12:24:23 33° SW 12:26:58 88° NW 12:32:58 10° NE
ALOS 2.1 12:23:50 10° N 12:28:31 87° WNW 12:33:11 10° SSW
Cosmos 1302 Rocket 4.4 12:30:06 39° WSW 12:30:06 39° WSW 12:34:32 10° SSW
Cosmos 407 Rocket 4.5 12:26:58 10° S 12:31:50 47° ESE 12:36:45 10° NNE
CZ-4B R/B 4.4 12:29:05 10° NNE 12:33:01 39° E 12:37:06 10° S
Cosmos 1697 Rocket 2.6 12:31:55 15° NNW 12:36:36 67° WSW 12:42:12 10° S
Abrixas rocket 4.4 12:38:21 13° N 12:39:13 14° NNE 12:40:51 10° ENE
FENGYUN 3A 3.6 12:37:54 10° N 12:43:16 63° WNW 12:48:37 10° SSW
ATLAS CENTAUR R/B 1.8 12:40:47 10° SSW 12:44:46 58° ESE 12:48:33 10° NE
ATLAS 3B R/B 3.4 12:44:55 25° WNW 12:46:23 28° NW 12:51:57 10° N
ARGOS Delta rocket 4.2 12:41:08 10° N 12:46:38 89° ESE 12:52:06 10° S
ADEOS Rocket 3.3 12:43:47 10° SSW 12:48:43 33° W 12:53:40 10° NNW
ADEOS 3.7 12:44:48 10° N 12:49:50 50° WNW 12:54:51 10° SSW
Meteor 2-5 Rocket 4.3 12:45:24 10° SW 12:50:31 35° WNW 12:55:47 10° NNW
Cosmos 1400 Rocket 2.6 12:47:53 10° N 12:51:48 85° W 12:55:39 10° S
Cosmos 1300 2.6 12:48:13 10° NNW 12:51:58 59° W 12:55:42 10° S
Cosmos 1428 Rocket 4.4 12:45:55 10° SSW 12:52:08 74° W 12:58:19 10° N
Aureole 3 4.1 12:53:08 10° N 12:57:55 87° E 13:04:02 10° S
Cosmos 1980 Rocket 2.1 12:54:26 10° NNW 13:00:03 84° WSW 13:05:39 10° SSE
CZ-4B R/B 4.2 12:59:27 10° N 13:03:17 40° WNW 13:06:55 10° SW
Cosmos 2228 3.7 13:01:10 10° NNW 13:05:04 32° W 13:08:57 10° SSW
Cosmos 1726 Rocket 3.8 13:01:01 10° NNW 13:05:17 46° W 13:09:32 10° SSW
Cosmos 2026 Rocket 4.1 12:59:11 10° SSW 13:05:21 54° W 13:11:36 10° N
Cosmos 1992 Rocket 4.2 13:01:25 10° NNW 13:06:25 47° WSW 13:11:23 10° S
Meteor PRIRODA 3.6 13:14:58 10° N 13:18:34 57° WNW 13:22:09 10° SSW
H-2A R/B 3.3 13:15:08 10° NNE 13:18:57 62° E 13:22:47 10° S
Meteor 2-10 Rocket 3.7 13:14:42 10° N 13:19:46 77° E 13:24:56 10° SSE
Cosmos 1484 Rocket 4.3 13:20:12 10° NNW 13:22:30 16° WNW 13:24:47 10° WSW
X-37B 3.2 13:20:16 10° S 13:22:43 21° SE 13:25:13 10° E
Cosmos 1689 Rocket 2.0 13:20:50 10° S 13:23:44 61° W 13:26:38 10° NNW
Cosmos 1315 Rocket 3.1 13:21:17 10° N 13:25:25 75° E 13:29:32 10° SSE
COSMO-SKYMED 1 2.6 13:21:53 10° S 13:26:10 64° W 13:30:28 10° NNW
Cosmos 676 Rocket 4.2 13:23:12 10° S 13:28:24 78° ESE 13:33:36 10° NNE
Uosat 12 SS-18 rocket 4.5 13:26:12 10° SW 13:31:01 47° WNW 13:35:17 10° NNE
YAOGAN 6 3.9 13:29:25 10° NNE 13:32:57 47° E 13:36:26 10° S
Cosmos 2322 Rocket 3.7 13:27:43 10° N 13:32:59 38° ENE 13:38:11 10° SE
Cosmos 2278 4.2 13:27:57 10° NW 13:33:09 39° WSW 13:38:19 10° S
Cosmos 1455 2.2 13:35:34 10° N 13:39:26 89° E 13:43:17 10° S
